Погода Сумы

Погода Сумы : погода сейчас, прогноз погоды и архив. Всё, что Вы хотите узнать о погоде Сумы!

Хотите узнать прогноз погоды Сумы? Тогда Вам сюда: Погода Сумы

Поиск расширенной информации на нашем сайте:

Другие новости

Новости СМИ2

Главная страница сайта

Новости сайта

03.07.2017

Напоминаем, что на нашем специализированном сайте Метеоцентр.Азия вы можете получить высокодетализированные автоматические прогнозы погоды по пунктам России, СНГ и мира в авиационном формате (включающие направление и скорость ветра, видимость, явления погоды, количество и форму облачности, нижнюю и верхнюю границу облачности).

Рекомендуем: Подборка материалов по истории и теории экономики http://www.econbook.ru/

Погода Сумы - сегодня

Время (UTC), дата Ветер
(°,м/с) 
Видим.   Явления Облачность Т
(°С)
Тd
(°С)
f(%) Тe
(°С)
Pmin
(гПа)
dP
(гПа)
Po
(мм)
O2
(г/м3)
Тmin Tmax R s Состояние
почвы
06 19.04.18 310 (СЗ) 10 км  слаб. ливневой дождь  10/8 420 м кучево-дожд., средняя 
[Cb calv|Ac und]
+8.1 +6.1 87 +6  1007.6  -1.2  739  288  +8.1       
09 19.04.18 320 (СЗ) 10 км  слаб. ливневой дождь  10/8 600 м кучево-дожд., средняя 
[Cb calv|Ac und]
+8.1 +6.1 87 +7  1006.8  -0.8  739  288           
12 19.04.18 320 (СЗ) 10 км  в посл. час ливневой дождь  10/8 700 м кучево-дожд., средняя 
[Cb calv|Ac und]
+8.2 +6.5 89 +6  1006.4  -0.3  738  288         
15 19.04.18 320 (СЗ) 10 км  {ливн. осадки}  10/8 480 м кучево-дожд., средняя 
[Cb calv|Ac und]
+7.9 +6.6 91 +6  1006.4  -0.1  738  288           
18 19.04.18 320 (СЗ) 10 км  {ливн. осадки}  10/10 720 м 
[Sc]
+7.6 +5.4 86 +6  1008.2  1.8  740  289    +8.6     
21 19.04.18 340 (С) 10 км    10/5 600 м средняя 
[Sc|Ac und]
+8.1 +5.9 86 +7  1008.7  0.5  740  289           
00 20.04.18 350 (С) 10 км    10/0 средняя 
[Ac und]
+8.5 +6.1 85 +7  1009.4  0.7  741  288           
03 20.04.18 340 (С) 10 км    8/0 средняя 
[Ac trans]
+7.4 +3.9 78 +6  1010.4  0.9  741  290           
06 20.04.18 360 (С) 10 км    3/0 верхняя 
[Ci fib]
+9.4 +2.1 60 +7  1012.2  1.9  743  289  +7.2         
12 20.04.18 010 (С) 10 км    4/4 600 м 
[Cu hum]
+15.5 -1.4 31 +15  1014.3  1.2  745  284           
15 20.04.18 350 (С) 10 км    4/4 1000 м 
[Sc]
+15.1 -2.6 29 +14  1015.2  0.9  745  285           
18 20.04.18 340 (С) 10 км    4/0 средняя 
[Ac trans]
+11.9 +1 47 +13  1016.5  746  288    +16.6       
21 20.04.18 290 (З) 10 км    ясно 
+7.8 +1.1 63 +9  1017.1  0.3  746  292           
00 21.04.18 270 (З) 10 км    ясно 
+5.7 +0.3 68 +7  1016.5  -0.8  746  294           
03 21.04.18 260 (З) 10 км    ясно 
+5.5 +0.9 72 +4  1015.8  -0.7  745  294           
06 21.04.18 270 (З) 10 км    6/0 верхняя 
[Ci fib]
+13.1 +3.3 51 +13  1013.7  -1.4  744  286  +5.3         
09 21.04.18 260 (З) 10 км    3/0 верхняя 
[Ci fib]
+17.8 +3.5 39 +17  1010.6  -2.7  742  280           
12 21.04.18 250 (З) 10 км    ясно 
+20.3 +3 32 +20  1006.6  -3.8  739  277           
15 21.04.18 260 (З) 10 км    3/3 600 м 
[Cu hum]
+21 +3 30 +21  1002.3  -4.1  736  275           
18 21.04.18 240 (ЮЗ) 10 км    3/0 средняя 
[Ac trans]
+18.3 +5 41 +18  999.3  -3.1  734  276    +21.1       
21 21.04.18 320 (СЗ) 10 км    6/0 средняя 
[Ac trans]
+15 +7.9 62 +14  1001.3  1.7  735  279           
00 22.04.18 340 (С) 10 км    ясно 
+11 +3.3 59 +10  1004.5  2.8  737  285           
03 22.04.18 300 (СЗ) 10 км    ясно 
+6.6 +0.8 66 +5  1005.7  0.8  738  290           
06 22.04.18 310 (СЗ) 10 км    3/0 верхняя 
[Ci fib]
+10.6 +1.9 55 +9  1005.6  0.2  738  286  +6.4         
09 22.04.18 310 (СЗ) 10 км    6/6 800 м 
[Sc]
+13.2 +0.8 43 +12  1005.3  -0.1  738  283           
Время (UTC), дата Ветер
(°,м/с) 
Видим.   Явления Облачность Т
(°С)
Тd
(°С)
f(%) Тe
(°С)
Pmin
(гПа)
dP
(гПа)
Po
(мм)
O2
(г/м3)
Тmin Tmax R s Состояние
почвы

Для получения пояснительной информации подведите курсор к названию столбца.

ПОГОДА Сумы - архив

Всё, что Вы хотите узнать о погоде Сумы - удобно и подробно!

Выберите нужную дату (начиная с 1 января 2015* года) и нажмите кнопку "Найти".
Будут отображены архивные сводки погоды по пункту Сумы, начиная с указанной даты.


Отображать данные в формате CSV (для использования в таблицах Excel)


Внимание! Наш архив погоды предназначен исключительно для личного некоммерческого использования в познавательных целях. Если Вам необходимы официальные справки о состоянии погоды (для производственных, юридических, коммерческих и т.п. целей), обращайтесь в органы Росгидромета.

*Примечание: данная дата относится к архиву по метеостанциям СССР (Россия, СНГ, Балтия).
Архив по метеостанциям Зарубежной Европы и Азии (кроме Китая) хранится 10 дней, по другим регионам земного шара (Китай, Африка, Америка, Австралия, Океания) - 1 день.

Сумы - район местоположения метеостанции


Название, широта, долгота, высота метеостанции:
Сумы 50.9°ш. 34.7°д. 181 м над ур. моря [Украина]

Дополнительная информация

В oтличие oт бoльшинства пoгoдных сайтoв мы публикуем пoдрoбную метеoинфoрмацию в детальнoм прoфессиoнальнoм фoрмате.

Характеристики температуры и влажнoсти вoздуха измеряются на высoте 2 м в тени вдали oт зданий и деревьев.
Скoрoсть ветра измеряется на высoте 10 м (на урoвне рoста челoвека скoрoсть ветра ниже в 1.5-2 раза). Если метеoстанция нахoдится в гoрoде или в лесу, тo скoрoсть ветра занижена на 2-4 м/с пo сравнению с oткрытым местoм. Скoрoсть ветра над акватoриями крупных рек и oзёр, а также на вершинах хoлмoв на 2-5 м/с выше, чем в oбычных услoвиях.
Атмoсфернoе давление в разных тoчках местнoсти мoжет значительнo oтличаться oт давления на метеoстанции, в зависимoсти oт услoвий рельефа (при пoдъёме на 10 м давление пoнижается примернo на 1 мм рт.ст.).